HISPASAT 30W-6

Last updated on Wed Sep 09 2026 00:03:02 GMT+0000 (Coordinated Universal Time)

1 43228U 18023A 26251.18100399 -.00000237 00000+0 00000+0 0 9991 2 43228 0.0444 49.2956 0003326 87.6412 245.4845 1.00270364 31234
UTC large
Height (km)
Speed (km/s)
/
Latitude / Longitude
Inclination (degrees)
Orbital Period (minutes)
Azimuth
Elevation
Range (km)
Doppler Factor

Next 0 passes for location: London (51.5072 / 0.1276)

No passes found over London.
HISPASAT 30W-6